• In Belarus
  • List of Countries
  • For 7 days
  • Water Temperature
  • Satellite Maps
  • Weather Map
  • Weather Widgets
  • user-avatar
    Login

    Hourly Weather Jamusukro

    Today, 19 May, Sunday

    Time Temperature Precipitation Wind Pressure Humidity
    00:00 +27°C° 0 mm 1 mps 753 mmHg 89%
    01:00 +25°C° 0 mm 0 mps 753 mmHg 89%
    02:00 +25°C° 0 mm 0 mps 752 mmHg 90%
    03:00 +25°C° 0 mm 0 mps 752 mmHg 90%
    04:00 +25°C° 0 mm 0 mps 752 mmHg 89%
    05:00 +26°C° 0 mm 0 mps 752 mmHg 89%
    06:00 +26°C° 0 mm 0 mps 753 mmHg 87%
    07:00 +27°C° 0 mm 0 mps 753 mmHg 82%
    08:00 +30°C° 0 mm 1 mps 753 mmHg 77%
    09:00 +31°C° 0 mm 1 mps 753 mmHg 73%
    10:00 +32°C° 0.1 mm 1 mps 753 mmHg 68%
    11:00 +33°C° 0.1 mm 1 mps 752 mmHg 64%
    12:00 +34°C° 0 mm 1 mps 752 mmHg 61%
    13:00 +35°C° 1.6 mm 2 mps 752 mmHg 63%
    14:00 +35°C° 1.6 mm 2 mps 751 mmHg 65%
    15:00 +34°C° 1.6 mm 2 mps 751 mmHg 67%
    16:00 +32°C° 0 mm 2 mps 751 mmHg 70%
    17:00 +31°C° 0 mm 2 mps 751 mmHg 74%
    18:00 +30°C° 0 mm 1 mps 751 mmHg 77%
    19:00 +29°C° 0 mm 1 mps 752 mmHg 81%
    20:00 +29°C° 0 mm 1 mps 752 mmHg 84%
    21:00 +28°C° 0 mm 1 mps 752 mmHg 88%
    22:00 +28°C° 0 mm 1 mps 752 mmHg 90%
    23:00 +27°C° 0 mm 1 mps 752 mmHg 92%

    Tomorrow, 20 May, Monday

    Time Temperature Precipitation Wind Pressure Humidity
    00:00 +25°C° 0 mm 0 mps 753 mmHg 94%
    01:00 +25°C° 0 mm 0 mps 752 mmHg 95%
    02:00 +25°C° 0 mm 0 mps 752 mmHg 96%
    03:00 +25°C° 0 mm 0 mps 752 mmHg 97%
    04:00 +25°C° 0.9 mm 0 mps 752 mmHg 97%
    05:00 +25°C° 0.9 mm 0 mps 752 mmHg 96%
    06:00 +25°C° 0.9 mm 0 mps 752 mmHg 96%
    07:00 +29°C° 0.1 mm 1 mps 753 mmHg 86%
    08:00 +31°C° 0.1 mm 1 mps 753 mmHg 76%
    09:00 +34°C° 0.1 mm 2 mps 753 mmHg 65%
    10:00 +35°C° 0 mm 2 mps 753 mmHg 60%
    11:00 +36°C° 0 mm 3 mps 753 mmHg 55%
    12:00 +37°C° 0 mm 3 mps 752 mmHg 49%
    13:00 +36°C° 1.6 mm 3 mps 752 mmHg 57%
    14:00 +34°C° 1.6 mm 2 mps 751 mmHg 64%
    15:00 +32°C° 1.6 mm 2 mps 751 mmHg 72%
    16:00 +31°C° 0.2 mm 2 mps 751 mmHg 76%
    17:00 +30°C° 0.2 mm 2 mps 751 mmHg 79%
    18:00 +29°C° 0.2 mm 1 mps 752 mmHg 83%
    19:00 +28°C° 0 mm 1 mps 752 mmHg 85%
    20:00 +28°C° 0 mm 1 mps 752 mmHg 87%
    21:00 +27°C° 0 mm 1 mps 752 mmHg 90%
    22:00 +27°C° 0 mm 1 mps 752 mmHg 90%
    23:00 +27°C° 0 mm 1 mps 753 mmHg 91%

    Day after tomorrow, 21 May, Tuesday

    Time Temperature Precipitation Wind Pressure Humidity
    00:00 +27°C° 0 mm 1 mps 753 mmHg 91%
    01:00 +27°C° 0 mm 1 mps 752 mmHg 92%
    02:00 +25°C° 0 mm 0 mps 752 mmHg 93%
    03:00 +24°C° 0 mm 0 mps 752 mmHg 94%
    04:00 +25°C° 0 mm 0 mps 752 mmHg 94%
    05:00 +25°C° 0 mm 0 mps 753 mmHg 93%
    06:00 +25°C° 0 mm 0 mps 753 mmHg 92%
    07:00 +29°C° 0 mm 1 mps 753 mmHg 83%
    08:00 +31°C° 0 mm 1 mps 754 mmHg 74%
    09:00 +32°C° 0 mm 1 mps 754 mmHg 65%
    10:00 +33°C° 1.1 mm 1 mps 754 mmHg 67%
    11:00 +33°C° 1.1 mm 1 mps 754 mmHg 70%
    12:00 +33°C° 1.1 mm 1 mps 753 mmHg 72%
    13:00 +31°C° 4.4 mm 1 mps 753 mmHg 78%
    14:00 +30°C° 4.4 mm 1 mps 752 mmHg 85%
    15:00 +28°C° 4.4 mm 1 mps 752 mmHg 92%
    16:00 +27°C° 0.5 mm 1 mps 752 mmHg 93%
    17:00 +27°C° 0.5 mm 1 mps 752 mmHg 94%
    18:00 +26°C° 0.5 mm 1 mps 752 mmHg 95%
    19:00 +26°C° 0 mm 1 mps 752 mmHg 95%
    20:00 +26°C° 0 mm 1 mps 752 mmHg 95%
    21:00 +26°C° 0 mm 1 mps 753 mmHg 96%
    22:00 +26°C° 0 mm 1 mps 752 mmHg 96%
    23:00 +26°C° 0 mm 1 mps 752 mmHg 96%

    22 May, Wednesday

    Time Temperature Precipitation Wind Pressure Humidity
    00:00 +23°C° 0 mm 0 mps 752 mmHg 96%
    01:00 +23°C° 0 mm 0 mps 752 mmHg 96%
    02:00 +23°C° 0 mm 0 mps 752 mmHg 97%
    03:00 +23°C° 0 mm 0 mps 752 mmHg 97%
    04:00 +23°C° 0 mm 0 mps 752 mmHg 97%
    05:00 +23°C° 0 mm 0 mps 752 mmHg 96%
    06:00 +23°C° 0 mm 0 mps 753 mmHg 96%
    07:00 +26°C° 0 mm 0 mps 753 mmHg 87%
    08:00 +28°C° 0 mm 0 mps 754 mmHg 78%
    09:00 +30°C° 0 mm 0 mps 755 mmHg 68%
    10:00 +32°C° 0 mm 0 mps 754 mmHg 61%
    11:00 +35°C° 0 mm 1 mps 754 mmHg 54%
    12:00 +37°C° 0 mm 1 mps 753 mmHg 46%
    13:00 +35°C° 1.9 mm 1 mps 752 mmHg 56%
    14:00 +35°C° 1.9 mm 2 mps 752 mmHg 66%
    15:00 +32°C° 1.9 mm 2 mps 751 mmHg 76%
    16:00 +30°C° 1.3 mm 2 mps 751 mmHg 82%
    17:00 +29°C° 1.3 mm 1 mps 752 mmHg 88%
    18:00 +28°C° 1.3 mm 1 mps 752 mmHg 93%
    19:00 +27°C° 0 mm 1 mps 752 mmHg 94%
    20:00 +27°C° 0 mm 1 mps 753 mmHg 95%
    21:00 +27°C° 0 mm 1 mps 753 mmHg 96%
    22:00 +27°C° 0 mm 1 mps 753 mmHg 96%
    23:00 +26°C° 0 mm 1 mps 752 mmHg 96%

    23 May, Thursday

    Time Temperature Precipitation Wind Pressure Humidity
    00:00 +26°C° 0 mm 1 mps 752 mmHg 97%
    01:00 +24°C° 0 mm 0 mps 752 mmHg 97%
    02:00 +24°C° 0 mm 0 mps 751 mmHg 98%
    03:00 +24°C° 0 mm 0 mps 751 mmHg 98%
    04:00 +24°C° 0 mm 0 mps 751 mmHg 98%
    05:00 +24°C° 0 mm 0 mps 752 mmHg 97%
    06:00 +24°C° 0 mm 0 mps 752 mmHg 97%
    07:00 +26°C° 0.1 mm 0 mps 753 mmHg 90%
    08:00 +28°C° 0.1 mm 0 mps 753 mmHg 82%
    09:00 +29°C° 0.1 mm 0 mps 754 mmHg 75%
    10:00 +31°C° 0.2 mm 0 mps 753 mmHg 69%
    11:00 +34°C° 0.2 mm 1 mps 753 mmHg 64%
    12:00 +35°C° 0.2 mm 1 mps 752 mmHg 58%
    13:00 +34°C° 2.6 mm 1 mps 751 mmHg 65%
    14:00 +33°C° 2.6 mm 1 mps 751 mmHg 71%
    15:00 +32°C° 2.6 mm 2 mps 750 mmHg 78%
    16:00 +31°C° 0.3 mm 2 mps 750 mmHg 81%
    17:00 +30°C° 0.3 mm 1 mps 751 mmHg 85%
    18:00 +29°C° 0.3 mm 1 mps 751 mmHg 88%
    19:00 +28°C° 0 mm 1 mps 752 mmHg 90%
    20:00 +28°C° 0 mm 1 mps 752 mmHg 92%
    21:00 +27°C° 0 mm 1 mps 753 mmHg 94%
    22:00 +27°C° 0 mm 1 mps 752 mmHg 95%
    23:00 +27°C° 0 mm 1 mps 752 mmHg 96%

    24 May, Friday

    Time Temperature Precipitation Wind Pressure Humidity
    00:00 +27°C° 0 mm 1 mps 752 mmHg 97%
    01:00 +26°C° 0 mm 1 mps 752 mmHg 97%
    02:00 +26°C° 0 mm 1 mps 751 mmHg 98%
    03:00 +26°C° 0 mm 1 mps 751 mmHg 98%
    04:00 +26°C° 0 mm 1 mps 751 mmHg 97%
    05:00 +25°C° 0 mm 0 mps 752 mmHg 96%
    06:00 +25°C° 0 mm 0 mps 752 mmHg 95%
    07:00 +28°C° 0.1 mm 1 mps 752 mmHg 90%
    08:00 +29°C° 0.1 mm 1 mps 753 mmHg 84%
    09:00 +31°C° 0.1 mm 1 mps 753 mmHg 79%
    10:00 +32°C° 0.5 mm 2 mps 753 mmHg 74%
    11:00 +34°C° 0.5 mm 2 mps 752 mmHg 69%
    12:00 +35°C° 0.5 mm 2 mps 751 mmHg 64%
    13:00 +34°C° 1.2 mm 2 mps 751 mmHg 68%
    14:00 +34°C° 1.2 mm 2 mps 750 mmHg 73%
    15:00 +32°C° 1.2 mm 2 mps 750 mmHg 77%
    16:00 +31°C° 0.3 mm 2 mps 750 mmHg 81%
    17:00 +30°C° 0.3 mm 1 mps 751 mmHg 84%
    18:00 +29°C° 0.3 mm 1 mps 751 mmHg 88%
    19:00 +28°C° 1.5 mm 1 mps 752 mmHg 91%
    20:00 +28°C° 1.5 mm 1 mps 752 mmHg 94%
    21:00 +27°C° 1.5 mm 1 mps 753 mmHg 97%
    22:00 +27°C° 0.1 mm 1 mps 752 mmHg 97%
    23:00 +27°C° 0.1 mm 1 mps 752 mmHg 97%
    Show more